Stations météo

réclame
Mon MeteoGroup
Charleroi/Gosselies, Belgique (6449): Température de l'air & dewpoint: 17.09.2017 23:00:00 - 23.09.2017 23:00:00 (CEST)Charleroi/Gosselies, Belgique (6449): Vitesse du vent & gusts: 17.09.2017 23:00:00 - 23.09.2017 23:00:00 (CEST)Charleroi/Gosselies, Belgique (6449): Direction du vent: 17.09.2017 23:00:00 - 23.09.2017 23:00:00 (CEST)Charleroi/Gosselies, Belgique (6449): reduced air pressure: 17.09.2017 23:00:00 - 23.09.2017 23:00:00 (CEST)Charleroi/Gosselies, Belgique (6449): visibility: 17.09.2017 23:00:00 - 23.09.2017 23:00:00 (CEST)
Date & Time tt [°C] td [°C] ff [km/h] ff [knt] fx [km/h] fx [knt] dd ppp [hPa] vv [km]
23.09.2017 23:00:00 10,7 7,6 9 5 - - ENE 1023,1 10
23.09.2017 22:00:00 11,6 7,3 8 4 14 8 NE 1023,3 10
23.09.2017 21:00:00 11,7 7,3 13 7 18 10 NE 1023,1 10
23.09.2017 20:00:00 12,9 6,1 13 7 - - NE 1022,9 10
23.09.2017 19:00:00 14,8 5,7 13 7 22 12 NE 1022,8 10
23.09.2017 18:00:00 16,3 6,6 15 8 22 12 NE 1022,5 10
23.09.2017 17:00:00 17,0 6,8 9 5 - - ENE 1022,7 10
23.09.2017 16:00:00 17,3 5,5 11 6 22 12 NE 1023,2 10
23.09.2017 15:00:00 16,9 7,0 11 6 22 12 ENE 1023,8 10
23.09.2017 14:00:00 16,1 9,8 13 7 - - NE 1024,1 10
23.09.2017 13:00:00 15,7 6,5 13 7 18 10 ENE 1024,2 10
23.09.2017 12:00:00 14,9 10,4 11 6 18 10 ENE 1024,5 7
23.09.2017 11:00:00 12,9 11,0 8 4 - - ESE 1024,8 4,5
23.09.2017 10:00:00 10,1 9,6 4 2 11 6 - 1024,9 1,1
23.09.2017 09:00:00 9,3 8,7 5 3 11 6 ESE 1024,8 3,0
23.09.2017 08:00:00 8,5 8,1 2 1 - - - 1024,8 0,7
23.09.2017 07:00:00 8,8 8,4 2 1 4 2 - 1024,6 0,6
23.09.2017 06:00:00 8,1 8,1 0 0 4 2 N 1024,8 0,2
23.09.2017 05:00:00 8,9 8,4 2 1 - - ESE 1024,6 1,8
23.09.2017 04:00:00 9,4 8,9 2 1 4 2 ESE 1024,8 3,0
23.09.2017 03:00:00 9,8 9,2 4 2 4 2 - 1024,7 5
23.09.2017 02:00:00 10,8 10,1 2 1 - - SE 1024,4 5
23.09.2017 01:00:00 10,8 10,0 2 1 7 4 - 1024,3 5
23.09.2017 00:00:00 11,2 10,4 4 2 11 6 ENE 1024,2 8
22.09.2017 23:00:00 12,1 10,6 8 4 - - NNE 1024,1 10
22.09.2017 22:00:00 12,9 11,1 8 4 11 6 N 1023,7 10
22.09.2017 21:00:00 14,0 10,8 5 3 7 4 NNW 1023,3 10
22.09.2017 20:00:00 14,3 10,9 4 2 - - W 1022,4 10
22.09.2017 19:00:00 16,2 11,5 9 5 18 10 WSW 1021,9 10
22.09.2017 18:00:00 17,1 11,3 8 4 18 10 WSW 1021,7 10
22.09.2017 17:00:00 17,1 11,2 9 5 - - WSW 1021,7 10
22.09.2017 16:00:00 15,9 11,8 9 5 18 10 W 1021,8 10
22.09.2017 15:00:00 16,0 12,5 8 4 14 8 W 1021,7 10
22.09.2017 14:00:00 15,5 12,2 8 4 - - WNW 1021,6 10
22.09.2017 13:00:00 15,4 12,5 5 3 11 6 NW 1021,3 10
22.09.2017 12:00:00 15,6 12,7 2 1 7 4 - 1021,2 10
22.09.2017 11:00:00 13,8 11,1 5 3 - - SW 1021,1 10
22.09.2017 10:00:00 11,9 9,1 5 3 11 6 S 1021,0 10
22.09.2017 09:00:00 11,6 9,2 8 4 11 6 SW 1020,8 10
22.09.2017 08:00:00 9,8 8,2 4 2 - - S 1020,3 10
22.09.2017 07:00:00 9,3 7,9 7 4 14 8 SSW 1020,2 10
22.09.2017 06:00:00 9,3 8,0 5 3 7 4 SSW 1020,0 10
22.09.2017 05:00:00 9,6 8,1 4 2 - - S 1020,0 10
22.09.2017 04:00:00 9,7 8,2 4 2 7 4 S 1020,0 10
22.09.2017 03:00:00 10,1 8,5 4 2 7 4 - 1020,2 10
22.09.2017 02:00:00 11,2 8,8 5 3 - - SSE 1020,1 10
22.09.2017 01:00:00 11,4 9,0 5 3 7 4 SSE 1019,9 10
22.09.2017 00:00:00 12,1 9,4 5 3 11 6 SSE 1019,9 10
21.09.2017 23:00:00 12,7 9,2 5 3 - - S 1020,0 10
21.09.2017 22:00:00 12,8 9,2 8 4 11 6 S 1020,0 10
21.09.2017 21:00:00 14,6 8,6 5 3 11 6 SSW 1019,6 10
21.09.2017 20:00:00 15,5 8,2 5 3 - - S 1019,0 10
21.09.2017 19:00:00 16,9 8,2 11 6 18 10 S 1018,7 10
21.09.2017 18:00:00 17,1 7,9 13 7 25 14 SSE 1018,5 10
21.09.2017 17:00:00 17,9 7,1 11 6 - - SSE 1018,6 10
21.09.2017 16:00:00 18,4 7,9 11 6 25 14 SSW 1018,7 10
21.09.2017 15:00:00 18,0 8,0 15 8 - - SSW - 10
21.09.2017 14:00:00 18,0 9,0 11 6 - - SSW - 10
21.09.2017 13:00:00 17,0 8,0 13 7 - - S - 10
21.09.2017 12:00:00 16,0 8,0 13 7 - - SSW - 10
21.09.2017 11:00:00 14,8 7,8 11 6 - - S 1020,7 10
21.09.2017 10:00:00 12,8 7,2 11 6 14 8 SSE 1020,9 10
21.09.2017 09:00:00 9,5 6,7 9 5 14 8 SSE 1020,9 10
21.09.2017 08:00:00 8,7 6,5 11 6 - - SSE 1020,9 10
21.09.2017 07:00:00 9,1 6,7 9 5 18 10 SSE 1020,8 10
21.09.2017 06:00:00 8,9 6,8 13 7 18 10 S 1020,9 10
21.09.2017 05:00:00 9,3 7,2 11 6 - - S 1021,0 10
21.09.2017 04:00:00 9,6 7,2 15 8 18 10 S 1021,2 10
21.09.2017 03:00:00 10,0 7,2 13 7 18 10 S 1021,4 10
21.09.2017 02:00:00 10,7 7,2 13 7 - - S 1021,5 10
21.09.2017 01:00:00 11,0 7,4 11 6 18 10 S 1021,4 10
21.09.2017 00:00:00 11,2 7,6 11 6 18 10 S 1021,3 10
20.09.2017 23:00:00 11,7 7,8 13 7 - - S 1021,4 10
20.09.2017 22:00:00 12,2 8,3 13 7 18 10 S 1021,4 10
20.09.2017 21:00:00 12,8 8,8 9 5 18 10 S 1021,4 10
20.09.2017 20:00:00 13,4 8,8 11 6 - - S 1021,2 10
20.09.2017 19:00:00 15,0 8,2 15 8 25 14 SW 1021,1 10
20.09.2017 18:00:00 15,3 8,2 16 9 29 16 SW 1021,1 10
20.09.2017 17:00:00 15,8 8,7 18 10 - - SW 1021,3 10
20.09.2017 16:00:00 15,1 8,9 18 10 25 14 WSW 1021,6 10
20.09.2017 15:00:00 15,4 8,5 16 9 25 14 SW 1021,7 10
20.09.2017 14:00:00 14,7 9,1 16 9 - - SW 1022,0 10
20.09.2017 13:00:00 14,4 8,9 16 9 29 16 WSW 1022,3 10
20.09.2017 12:00:00 14,0 9,6 21 11 29 16 WSW 1022,4 10
20.09.2017 11:00:00 12,4 8,8 18 10 - - SW 1022,4 10
20.09.2017 10:00:00 10,7 8,3 13 7 22 12 SW 1022,7 10
20.09.2017 09:00:00 9,2 7,4 13 7 18 10 SSW 1022,7 8
20.09.2017 08:00:00 8,5 7,3 9 5 - - SSW 1022,6 6
20.09.2017 07:00:00 9,1 7,8 11 6 18 10 SW 1022,3 7
20.09.2017 06:00:00 9,7 8,3 11 6 18 10 SW 1022,3 4,5
20.09.2017 05:00:00 10,7 9,5 11 6 - - WSW 1022,2 4,5
20.09.2017 04:00:00 10,8 9,9 11 6 14 8 WSW 1022,3 4,5
20.09.2017 03:00:00 11,1 10,2 8 4 18 10 WSW 1022,4 5
20.09.2017 02:00:00 11,0 10,0 11 6 - - WSW 1022,6 5
20.09.2017 01:00:00 11,0 10,1 11 6 14 8 WSW 1022,5 10
20.09.2017 00:00:00 11,3 10,3 8 4 14 8 W 1022,6 8
19.09.2017 23:00:00 11,5 10,4 9 5 - - W 1022,6 10
19.09.2017 22:00:00 12,4 10,4 9 5 18 10 W 1022,3 10
19.09.2017 21:00:00 13,3 10,0 8 4 14 8 W 1021,7 10
19.09.2017 20:00:00 13,7 9,8 8 4 - - W 1021,1 10
19.09.2017 19:00:00 14,2 9,4 11 6 22 12 WNW 1020,6 10
19.09.2017 18:00:00 15,6 7,6 8 4 18 10 WNW 1020,0 10
19.09.2017 17:00:00 16,1 6,4 11 6 - - NW 1019,7 10
19.09.2017 16:00:00 16,2 8,4 11 6 22 12 NNW 1019,7 10
19.09.2017 15:00:00 15,5 8,6 9 5 22 12 NW 1019,5 10
19.09.2017 14:00:00 15,0 9,7 9 5 - - NW 1019,7 10
19.09.2017 13:00:00 13,6 9,3 9 5 18 10 W 1019,9 10
19.09.2017 12:00:00 11,8 9,5 8 4 18 10 WNW 1019,7 10
19.09.2017 11:00:00 11,4 9,4 8 4 - - W 1019,2 10
19.09.2017 10:00:00 10,2 9,2 9 5 18 10 W 1018,7 7
19.09.2017 09:00:00 9,7 8,9 11 6 18 10 WSW 1018,1 3,2
19.09.2017 08:00:00 9,5 8,7 9 5 - - WSW 1017,9 3,5
19.09.2017 07:00:00 9,4 8,7 13 7 18 10 WSW 1017,6 4,0
19.09.2017 06:00:00 9,5 8,9 13 7 18 10 WSW 1017,3 4,0
19.09.2017 05:00:00 9,4 8,7 13 7 - - WSW 1017,3 4,0
19.09.2017 04:00:00 9,5 8,8 16 9 22 12 WSW 1017,4 4,0
19.09.2017 03:00:00 9,7 8,9 16 9 22 12 WSW 1017,4 5
19.09.2017 02:00:00 9,9 9,1 15 8 - - WSW 1017,3 5
19.09.2017 01:00:00 9,9 9,1 15 8 18 10 WSW 1017,1 6
19.09.2017 00:00:00 9,7 8,9 13 7 22 12 WSW 1017,2 8
18.09.2017 23:00:00 10,1 9,1 15 8 - - WSW 1017,2 10
18.09.2017 22:00:00 10,3 9,3 13 7 18 10 SW 1017,2 10
18.09.2017 21:00:00 10,3 9,2 13 7 22 12 SW 1017,0 10
18.09.2017 20:00:00 10,7 9,2 16 9 - - SW 1016,6 10
18.09.2017 19:00:00 11,2 9,4 13 7 29 16 WSW 1016,3 10
18.09.2017 18:00:00 12,1 9,6 18 10 29 16 WSW 1015,7 10
18.09.2017 17:00:00 11,8 10,6 16 9 - - SW 1015,7 10
18.09.2017 16:00:00 10,6 9,3 18 10 43 23 WSW 1016,0 10
18.09.2017 15:00:00 13,6 9,1 21 11 43 23 SW 1015,3 10
18.09.2017 14:00:00 14,0 10,0 22 12 - - SW - 10
18.09.2017 13:00:00 13,2 9,0 16 9 29 16 SSW 1015,5 10
18.09.2017 12:00:00 12,7 9,6 18 10 29 16 SW 1015,6 10
18.09.2017 11:00:00 11,7 9,5 16 9 - - SSW 1015,6 10
18.09.2017 10:00:00 9,7 8,8 15 8 22 12 SSW 1015,6 6
18.09.2017 09:00:00 8,9 8,0 16 9 22 12 SSW 1015,4 6
18.09.2017 08:00:00 8,5 7,7 15 8 - - SW 1015,3 5
18.09.2017 07:00:00 8,4 7,6 13 7 18 10 SW 1014,9 8
18.09.2017 06:00:00 8,4 7,6 15 8 18 10 SW 1014,7 9
18.09.2017 05:00:00 8,4 7,2 11 6 - - SSW 1014,7 10
18.09.2017 04:00:00 8,1 7,0 11 6 18 10 SW 1014,9 10
18.09.2017 03:00:00 8,4 7,2 11 6 18 10 SSW 1014,9 10
18.09.2017 02:00:00 8,7 7,4 11 6 - - SSW 1015,0 10
18.09.2017 01:00:00 9,0 7,6 8 4 14 8 SW 1014,9 10
18.09.2017 00:00:00 9,6 7,8 11 6 14 8 SSW 1015,0 10
17.09.2017 23:00:00 10,4 8,3 9 5 - - SW 1014,9 10

tt = Température de l'air
td = dewpoint
ff = Vitesse du vent
fx = gusts
dd = Direction du vent
ppp = reduced air pressure
vv = visibility

stations d'obs. à proximité